Tracking 19794 objects as of 22-Jul-2019
HD Live streaming from Space Station
objects crossing your sky now

COSMOS 1275 DEB

Track COSMOS 1275 DEB now!
10-day predictions


NORAD ID: 42105
Int'l Code: 1981-053PR
Perigee: 912.7 km
Apogee: 1,192.5 km
Inclination: 83.0 °
Period: 106.1 minutes
Semi major axis: 7423 km
RCS: Unknown
Launch date: June 4, 1981
Source: Commonwealth of Independent States (former USSR) (CIS)
Launch site: PLESETSK MISSILE AND SPACE COMPLEX (PKMTR)

Note: This is SATELLITE DEBRIS
aabbcc
Your satellite tracking list
Your tracking list is empty




NASA's NSSDC Master Catalog

Two Line Element Set (TLE):
1 42105U 81053PR  17003.23588054 +.00000964 +00000-0 +11834-2 0  9993
2 42105 082.9794 350.9223 0188487 067.0642 352.3327 13.57314102607250
Source of the keplerian elements: AFSPC